ONEWEB-0176, 48210

Orbit data source: Space-Track

ONEWEB-0176, 48210 is a payload satellite owned by One Web (NAA) (UK) in LEO that was launched on Sun, 25 Apr 2021 UTC via a SOYUZ-2-1B launch vehicle from the Vostochny Cosmodrome (VOSTO). Payload-class satellites include a variety of spacecraft equipped with specific instruments for various scientific and technological missions. These include communications satellites like Starlink; space stations such as the ISS; scientific satellites like the Hubble; Earth observation satellites from companies like Planet Labs, Umbra, and HawkEye 360; GPS; miniature CubeSats for education and research; and military/defense satellites.

Loading next visibility...
Identifier
48210, 2021-031A
Orbit
LEO
Country
Flag of UKUK
Related business
Manufacturer
One Web
Mission
Operational Commercial Communications
Bus & Motor
ARROW, Unknown motor
Mass
148 kg wet, ~140 kg dry
Launch date (UTC)
2021-04-25 (5 years ago)
Launch vehicle
SOYUZ-2-1B
Launch site
Vostochny Cosmodrome (VOSTO)
Object type
Payload
Rocket body
Debris
Shape & HBR
Trap Box + 2 Pan, 6.7 m
Radar Cross Section
3.464 m², Large (>1 m²)

Expand to show TLE details & history
Last TLE update: 21 hours ago

TLE from 21 hours ago
0 ONEWEB-0176
1 48210U 21031A   26094.04026294  .00000252  00000-0  64601-3 0  9999
2 48210  87.8940 304.5002 0001761  84.7618 275.3713 13.14504056238578
Epoch: 2026-04-04T00:57Z
TLE epoch observation values (Epoch: 2026-04-04T00:57:58.718Z)
Latitude
0.00004°
Longitude
97.63979°
Altitude
1,208.554 km
Speed
7.25 km/s
True Right ascension
20h 18m 00s
True Declination
0° 00' 00"
Sunlit
Object was in daylight at epoch
Visualization orbit readout
Latitude
Unknown
Longitude
Unknown
Altitude
Unknown
Speed
Unknown
Apparent Right ascension
Unknown
Apparent Declination
Unknown
Sunlit
N/A
Visualization observer readout
Local Sidereal Time
04:10:25
Azimuth
Unknown
Elevation
Unknown
Doppler factor
Unknown
Orbital elements
Apogee altitude
1,204.234 km
Perigee altitude
1,201.564 km
Semi-major axis
7,581.036 km
Eccentricity
0.00018
Inclination
87.894°
RAAN
304.5002°
Arg. of periapsis
84.7618°
True anomaly
275.35121°
Mean anomaly
275.3713°
Eccentric anomaly
275.36125°
Mean motion
3.28814 °/min
Orbital period
109.48 mins
BSTAR
0.00064601
Loading maneuver chart data...
Computing Atmospheric mass density...
Loading historical data...
Loading historical data...
Loading historical data...
Loading historical data...
Loading historical data...
Loading historical data...
Loading historical data...

Documentation

Showing up to 5 results
|